TimeMST,TemperatureF,Dew PointF,Humidity,Sea Level PressureIn,VisibilityMPH,Wind Direction,Wind SpeedMPH,Gust SpeedMPH,PrecipitationIn,Events,Conditions,WindDirDegrees,DateUTC
12:52 AM,42.1,24.1,49,29.84,10.0,NNW,46.0,58.7,N/A,,Clear,330,2014-01-18 07:52:00
1:52 AM,41.0,24.1,51,29.86,10.0,NNW,36.8,42.6,N/A,,Clear,330,2014-01-18 08:52:00
2:52 AM,41.0,24.1,51,29.87,10.0,NNW,39.1,58.7,N/A,,Clear,330,2014-01-18 09:52:00
3:52 AM,39.9,24.1,53,29.92,10.0,NNW,46.0,59.8,N/A,,Clear,330,2014-01-18 10:52:00
4:52 AM,37.9,21.9,53,29.98,10.0,NNW,43.7,62.1,N/A,,Clear,330,2014-01-18 11:52:00
5:52 AM,37.0,21.9,54,30.01,10.0,NNW,41.4,54.1,N/A,,Clear,330,2014-01-18 12:52:00
6:52 AM,36.0,21.9,57,30.03,10.0,NNW,47.2,56.4,N/A,,Clear,340,2014-01-18 13:52:00
7:52 AM,36.0,21.0,55,30.06,10.0,NNW,41.4,51.8,N/A,,Clear,330,2014-01-18 14:52:00
8:52 AM,37.0,19.9,50,30.09,10.0,NNW,39.1,49.5,N/A,,Clear,340,2014-01-18 15:52:00
9:52 AM,39.9,18.0,41,30.10,10.0,NNW,35.7,52.9,N/A,,Clear,330,2014-01-18 16:52:00
10:52 AM,41.0,16.0,36,30.12,10.0,NNW,36.8,47.2,N/A,,Clear,330,2014-01-18 17:52:00
11:52 AM,44.1,15.1,31,30.16,10.0,NNW,25.3,36.8,N/A,,Clear,330,2014-01-18 18:52:00
12:52 PM,46.0,12.9,26,30.12,10.0,NNW,20.7,32.2,N/A,,Clear,330,2014-01-18 19:52:00
1:52 PM,46.9,12.9,25,30.10,10.0,NNW,19.6,-,N/A,,Clear,340,2014-01-18 20:52:00
2:52 PM,46.0,14.0,28,30.09,10.0,North,17.3,-,N/A,,Clear,350,2014-01-18 21:52:00
3:52 PM,43.0,17.1,35,30.09,10.0,North,10.4,-,N/A,,Clear,350,2014-01-18 22:52:00
4:52 PM,37.0,17.1,44,30.09,10.0,West,6.9,-,N/A,,Clear,260,2014-01-18 23:52:00
5:52 PM,36.0,15.1,43,30.07,10.0,SW,6.9,-,N/A,,Clear,220,2014-01-19 00:52:00
6:52 PM,35.1,15.1,44,30.06,10.0,SW,6.9,-,N/A,,Clear,230,2014-01-19 01:52:00
7:52 PM,30.9,14.0,50,30.02,10.0,Calm,Calm,-,N/A,,Clear,0,2014-01-19 02:52:00
8:52 PM,28.9,16.0,58,29.99,10.0,Calm,Calm,-,N/A,,Clear,0,2014-01-19 03:52:00
9:52 PM,32.0,15.1,50,29.97,10.0,Calm,Calm,-,N/A,,Clear,0,2014-01-19 04:52:00
10:52 PM,28.0,16.0,61,29.96,10.0,Calm,Calm,-,N/A,,Clear,0,2014-01-19 05:52:00
11:52 PM,30.9,16.0,54,29.92,10.0,ESE,3.5,-,N/A,,Clear,110,2014-01-19 06:52:00